Weather History for PANN - October, 2011

Change the Weather History Date:

Saturday, October 1, 2011

  Actual Average Record
Temperature  
Mean Temperature 32 °F -  
Max Temperature 44 °F 46 °F 67 °F (2003)
Min Temperature 19 °F 29 °F 18 °F (2012)
Degree Days  
Heating Degree Days 34    
Moisture  
Dew Point 25 °F    
Average Humidity 91    
Maximum Humidity 100    
Minimum Humidity 65    
Precipitation  
Precipitation 0.00 in - - ()
Sea Level Pressure  
Sea Level Pressure 29.68 in    
Wind  
Wind Speed 1 mph (North)    
Max Wind Speed 5 mph    
Max Gust Speed -    
Visibility 6 miles    
Events Fog    
Averages and records for this station are not official NWS values.
T = Trace of Precipitation, MM = Missing Value Source: NWS Daily Summary

Daily Weather History Graph

Daily Weather History Graph

Search for Another Location

Airport or City:

Trip Planner

Search our weather history database for the weather conditions in past years. The results will help you decide how hot, cold, wet, or windy it might be!

Date:

Astronomy

Oct. 01, 2011 Rise Set
Actual Time 8:05 AM AKDT 7:24 PM AKDT
Civil Twilight 7:17 AM AKDT 8:12 PM AKDT
Nautical Twilight 6:19 AM AKDT 9:09 PM AKDT
Astronomical Twilight 5:17 AM AKDT 10:11 PM AKDT
Moon 4:01 PM AKDT (10/1) 7:52 PM AKDT (10/1)
Length of Visible Light 12h 55m
Length of Day
11h 19m
Waxing Crescent, 26% of the Moon is Illuminated
Oct 1
Waxing Crescent
Oct 3
First Quarter
Oct 11
Full
Oct 19
Last Quarter
Oct 26
New

Hourly Weather History & Observations

Time (AKDT) Temp. Windchill Dew Point Humidity Pressure Visibility Wind Dir Wind Speed Gust Speed Precip Events Conditions
12:53 AM 24.1 °F - 23.0 °F 96% 29.66 in 10.0 mi Calm Calm - N/A   Clear
1:20 AM 23.0 °F 18.4 °F 21.2 °F 93% 29.63 in 10.0 mi South 3.5 mph - N/A   Scattered Clouds
1:53 AM 24.1 °F - 21.9 °F 91% 29.67 in 10.0 mi Calm Calm - N/A   Clear
2:24 AM 23.0 °F - 21.2 °F 93% 29.64 in 8.0 mi Calm Calm - N/A   Partly Cloudy
2:53 AM 23.0 °F - 19.9 °F 88% 29.68 in 7.0 mi Calm Calm - 0.00 in   Scattered Clouds
3:12 AM 21.2 °F - 19.4 °F 93% 29.65 in 10.0 mi Calm Calm - N/A   Partly Cloudy
3:53 AM 21.9 °F - 19.0 °F 89% 29.68 in 10.0 mi Calm Calm - N/A   Partly Cloudy
4:53 AM 21.0 °F - 18.0 °F 88% 29.69 in 10.0 mi Calm Calm - N/A   Clear
5:53 AM 21.0 °F - 18.0 °F 88% 29.70 in 10.0 mi Calm Calm - N/A   Clear
6:01 AM 19.4 °F - 17.6 °F 93% 29.67 in 10.0 mi Calm Calm - N/A   Scattered Clouds
6:09 AM 21.2 °F - 17.6 °F 86% 29.67 in 7.0 mi Calm Calm - N/A   Mostly Cloudy
6:15 AM 21.2 °F - 19.4 °F 93% 29.67 in 1.5 mi Calm Calm - N/A   Mostly Cloudy
6:53 AM 21.9 °F - 19.9 °F 92% 29.70 in 0.8 mi Calm Calm - N/A   Mist
7:24 AM 21.2 °F - 19.4 °F 93% 29.68 in 1.2 mi Calm Calm - N/A   Overcast
7:44 AM 21.2 °F - 19.4 °F 93% 29.68 in 0.5 mi Calm Calm - 0.00 in Fog Light Freezing Fog
7:53 AM 21.0 °F - 19.0 °F 92% 29.71 in 1.2 mi Calm Calm - 0.00 in   Overcast
7:57 AM 19.4 °F - 19.4 °F 100% 29.69 in 4.0 mi Calm Calm - 0.00 in   Overcast
8:09 AM 21.2 °F - 19.4 °F 93% 29.69 in 1.8 mi Calm Calm - 0.00 in   Overcast
8:19 AM 21.2 °F - 19.4 °F 93% 29.69 in 0.5 mi Calm Calm - 0.00 in Fog Light Freezing Fog
8:53 AM 23.0 °F - 21.9 °F 96% 29.73 in 0.2 mi Calm Calm - 0.00 in Fog Light Freezing Fog
9:35 AM 24.8 °F - 23.0 °F 93% 29.71 in 2.0 mi Calm Calm - N/A   Overcast
9:43 AM 24.8 °F - 23.0 °F 93% 29.71 in 6.0 mi Calm Calm - N/A   Overcast
10:48 AM 28.4 °F 23.3 °F 28.4 °F 100% 29.71 in 1.8 mi East 4.6 mph - N/A   Overcast
10:53 AM 30.0 °F 26.5 °F 28.9 °F 96% 29.74 in 0.8 mi East 3.5 mph - N/A   Overcast
11:23 AM 30.2 °F - 30.2 °F 100% 29.71 in 2.0 mi Calm Calm - N/A   Overcast
11:31 AM 30.2 °F - 30.2 °F 100% 29.71 in 4.0 mi Calm Calm - N/A   Overcast
11:39 AM 30.2 °F - 30.2 °F 100% 29.71 in 1.8 mi Calm Calm - N/A   Overcast
12:07 PM 30.2 °F - 30.2 °F 100% 29.71 in 3.0 mi Calm Calm - N/A   Overcast
12:53 PM 32.0 °F 28.7 °F 30.9 °F 96% 29.74 in 10.0 mi North 3.5 mph - N/A   Overcast
1:53 PM 32.0 °F 28.7 °F 30.9 °F 96% 29.73 in 10.0 mi NNW 3.5 mph - N/A   Overcast
2:28 PM 35.6 °F - 32.0 °F 87% 29.70 in 10.0 mi Calm Calm - N/A   Mostly Cloudy
2:53 PM 37.9 °F - 33.1 °F 83% 29.73 in 10.0 mi Calm Calm - N/A   Scattered Clouds
3:53 PM 41.0 °F - 33.1 °F 73% 29.70 in 10.0 mi Calm Calm - N/A   Partly Cloudy
4:53 PM 42.1 °F - 34.0 °F 73% 29.68 in 10.0 mi Calm Calm - N/A   Clear
5:53 PM 44.1 °F - 33.1 °F 65% 29.67 in 10.0 mi Calm Calm - N/A   Clear
6:53 PM 41.0 °F - 33.1 °F 73% 29.66 in 10.0 mi Calm Calm - N/A   Mostly Cloudy
7:53 PM 37.0 °F - 32.0 °F 82% 29.65 in 10.0 mi Calm Calm - N/A   Scattered Clouds
8:53 PM 32.0 °F - 30.0 °F 92% 29.64 in 10.0 mi Calm Calm - N/A   Clear
9:53 PM 30.0 °F 26.5 °F 28.0 °F 92% 29.62 in 10.0 mi WNW 3.5 mph - N/A   Clear
10:53 PM 30.9 °F - 28.9 °F 92% 29.61 in 10.0 mi Calm Calm - N/A   Scattered Clouds
11:53 PM 30.9 °F - 28.9 °F 92% 29.59 in 10.0 mi Calm Calm - N/A   Clear